Regional Weather Roundup
Issued by NWS Sterling, VA

Home | Current Version | Previous Version | Graphics & Text | Print | Product List | Glossary On
Versions: 1 2 3 4 5 6 7 8 9 10 11 12 13 14 15 16 17 18 19 20 21 22 23 24 25 26 27 28 29 30 31 32 33 34 35 36 37 38 39 40 41 42 43 44 45 46 47 48 49 50
000
ASUS41 KLWX 271810
RWRLWX

REGIONAL WEATHER ROUNDUP
NATIONAL WEATHER SERVICE BALTIMORE MD/WASHINGTON DC
100 PM EST FRI FEB 27 2015

Note: "FAIR" indicates few or no clouds below 12,000 feet
with no significant weather and/or obstructions to visibility.
 TC=TEMPERATURE CELSIUS

 * =Non NWS site. Station does not report precipitation (e.g. rain,
    snow, etc.), thunder, or fog.

DCZ001-MDZ009-015-VAZ040>042-051-053>054-271900-
WASHINGTON METRO

CITY           SKY/WX    TMP DP  RH WIND       PRES   REMARKS
WASHINGTON NAT PTSUNNY   34  12  40 NW13      30.45S WCI  25
DULLES         MOSUNNY   28   9  44 NW15      30.44S WCI  16
ANDREWS AFB    PTSUNNY   31  13  47 N8        30.41S WCI  23
FT BELVOIR     SUNNY     32  10  40 NW12G20   30.44S WCI  23
QUANTICO       PTSUNNY   33  12  41 N21       30.46R WCI  21
COLLEGE PARK*  MOSUNNY   32  14  47 N8        30.43F WCI  25
LEESBURG*      SUNNY     30  14  51 NW9       30.45S WCI  22
MANASSAS*      SUNNY     34  12  40 N13G21    30.44F WCI  25
GAITHERSBURG*  MOSUNNY   27  10  50 N6        30.46S

$$

MDZ006>007-011-014-271900-
BALTIMORE METRO

CITY           SKY/WX    TMP DP  RH WIND       PRES   REMARKS
BWI AIRPORT    MOSUNNY   31  12  45 N8        30.42F WCI  23
MD SCIENCE CTR   N/A     28  10  46 MISG      30.46S
MARTIN STATE   MOSUNNY   30  16  55 NW7       30.46S
ANNAPOLIS      MOSUNNY   30  15  53 NW8       30.43S WCI  22
FORT MEADE*    MOSUNNY   30  14  51 NW12      30.45F WCI  21

$$

MDZ012-015-019>023-271900-
MARYLAND EASTERN SHORE

CITY           SKY/WX    TMP DP  RH WIND       PRES   REMARKS
OCEAN CITY     SUNNY     32  20  61 NE8       30.40F WCI  25
SALISBURY      CLOUDY    35  21  56 N8        30.40S WCI  29
BAY BRIDGE AP*   N/A     30  18  59 N10       30.44S WCI  21
EASTON*        CLOUDY    32  27  80 NE9       30.46S WCI  24

$$

MDZ017>025-271900-
SOUTHERN MARYLAND

CITY           SKY/WX    TMP DP  RH WIND       PRES   REMARKS
PATUXENT RIVER LGT SNOW  30  23  75 N10       30.43R WCI  21
ST INIGOES     CLOUDY    33  15  47 NW6       30.42R
LEONARDTOWN*   CLOUDY    32  14  47 CALM      30.43S

$$

MDZ003>005-271900-
NORTH CENTRAL MARYLAND

CITY           SKY/WX    TMP DP  RH WIND       PRES   REMARKS
FREDERICK*     MOSUNNY   28  10  47 NE7       30.48S
HAGERSTOWN APT SUNNY     26   6  42 W8        30.42F WCI  18
WESTMINSTER*   MOSUNNY   23   9  54 N7        30.40F

$$

MDZ501>502-271900-
WESTERN MARYLAND

CITY           SKY/WX    TMP DP  RH WIND       PRES   REMARKS
OAKLAND*       SUNNY     14  -2  48 W8        30.28R HAZE    WCI   3
CUMBERLAND*    SUNNY     28   5  37 N10       30.48S WCI  19

$$

VAZ025>031-271900-
SHENANDOAH VALLEY

CITY           SKY/WX    TMP DP  RH WIND       PRES   REMARKS
WINCHESTER*    SUNNY     32   5  32 NW16      30.42S WCI  21
FRONT ROYAL*   FAIR      30   9  40 N6        30.40S
LURAY*         FAIR      34  16  47 NW7       30.38F
NEW MARKET*    FAIR      29  11  46 E8        30.38S WCI  21
STAUNTON*      MOSUNNY   32  14  47 NE3       30.37F
WAYNESBORO*    FAIR      32  12  43 SW12      30.34S WCI  23

$$

WVZ021-048>050-054>055-271900-
EASTERN WEST VIRGINIA PANHANDLE

CITY           SKY/WX    TMP DP  RH WIND       PRES   REMARKS
MARTINSBURG    SUNNY     28   7  41 VRB5      30.44F
PETERSBURG*    NOT AVBL

$$

VAZ036>039-050-271900-
CENTRAL FOOTHILLS

CITY           SKY/WX    TMP DP  RH WIND       PRES   REMARKS
CHARLOTTESVILL MOSUNNY   36  18  48 NE7       30.37S
CULPEPER*      MOSUNNY   34  14  44 N9        30.43F WCI  26
ORANGE*        MOSUNNY   34  16  47 N7        30.42S
GORDONSVILLE*  CLOUDY    32  15  49 N7        30.39F
WARRENTON*     FAIR      33  18  55 N12       30.43S WCI  24

$$

VAZ055>057-271900-
NORTH AND CENTRAL PIEDMONT

CITY           SKY/WX    TMP DP  RH WIND       PRES   REMARKS
FREDERICKSBRG* PTSUNNY   34  14  44 N6        30.43S
STAFFORD*      MOSUNNY   33  13  43 NW13G20   30.48R WCI  24

$$

NCZ024-NYZ072-PAZ021-071-VAZ022-071-271900-
OTHER REGIONAL OBSERVATIONS

CITY           SKY/WX    TMP DP  RH WIND       PRES   REMARKS
PHILADELPHIA   MOSUNNY   29   9  43 NW13G18   30.43F WCI  19
PITTSBURGH     MOSUNNY   14  -2  49 VRB6      30.49R
ROANOKE        SUNNY     35  13  40 VRB5      30.39F
RICHMOND       CLOUDY    34  25  69 N8        30.42R WCI  27
RALEIGH        PTSUNNY   42  25  50 VRB6      30.39S

$$

ANZ530>537-271900-
MARINE OBSERVATIONS

STATION/POSITION TIME  TEMP    WIND        PRES
                       AIR SEA DIR/SP/G
                 (UTC) (F)     (DEG/KT/KT) (MB)
THOMAS PT LIGHT  1800   27 32   40/ 12/ 13 1031.5R
BALT KEY BRIDGE  1700   27     320/  7/ 10 1030.8R
COVE POINT       1700   28      20/ 14/ 17 1029.6R
LEWISETTA        1700   28 31              1030.0R
SOLOMONS ISLAND  1700      33                N/A

$$




USA.gov is the U.S. government's official web portal to all federal, state and local government web resources and services.